Weather History for Black River Falls, WI

Change the Weather History Date:

Sunday, October 13, 2013

  Actual Average (KLSE) Record (KLSE)
Temperature  
Mean Temperature 44 °F 51 °F  
Max Temperature 60 °F 61 °F 86 °F (1975)
Min Temperature 28 °F 41 °F 19 °F (1917)
Degree Days  
Heating Degree Days 21 14  
Month to date heating degree days 155  
Since 1 July heating degree days 315  
Cooling Degree Days 0 0  
Month to date cooling degree days 7  
Year to date cooling degree days 781  
Moisture  
Dew Point 33 °F    
Average Humidity 76    
Maximum Humidity 100    
Minimum Humidity 31    
Precipitation  
Precipitation 0.00 in 0.06 in 1.11 in (1890)
Month to date precipitation 1.01  
Year to date precipitation 28.53  
Snow  
Snow 0.00 in 0.00 in T in (2009)
Month to date snowfall 0.0  
Since 1 July snowfall 0.0  
Since 1 September snowfall 0.0  
Snow Depth -    
Sea Level Pressure  
Sea Level Pressure 30.34 in    
Wind  
Wind Speed 3 mph (NW)    
Max Wind Speed 9 mph    
Max Gust Speed 16 mph    
Visibility 10 miles    
Events      
T = Trace of Precipitation, MM = Missing Value Source: NWS Daily Summary

Daily Weather History Graph

Daily Weather History Graph

Search for Another Location

Airport:

Trip Planner

Search our weather history database for the weather conditions in past years. The results will help you decide how hot, cold, wet, or windy it might be!

Date:

Astronomy

Oct. 13, 2013 Rise Set
Actual Time 7:16 AM CDT 6:22 PM CDT
Civil Twilight 6:46 AM CDT 6:51 PM CDT
Nautical Twilight 6:13 AM CDT 7:24 PM CDT
Astronomical Twilight 5:39 AM CDT 7:58 PM CDT
Moon 3:24 PM CDT (10/13) 1:14 AM CDT (10/13)
Length of Visible Light 12h 04m
Length of Day
11h 06m
Waxing Gibbous, 69% of the Moon is Illuminated
Oct 13
Waxing Gibbous
Oct 18
Full
Oct 26
Last Quarter
Nov 3
New
Nov 9
First Quarter

Hourly Weather History & Observations

Time (CDT) Temp. Windchill Dew Point Humidity Pressure Visibility Wind Dir Wind Speed Gust Speed Precip Events Conditions
12:15 AM 39.0 °F 35.7 °F 38.8 °F 99% 30.17 in 10.0 mi SSW 4.6 mph - N/A   Clear
12:35 AM 39.6 °F 35.4 °F 38.7 °F 97% 30.18 in 10.0 mi South 5.8 mph - N/A   Clear
12:55 AM 39.2 °F 37.0 °F 38.7 °F 98% 30.19 in 10.0 mi SW 3.5 mph - N/A   Clear
1:15 AM 39.9 °F - 39.2 °F 97% 30.20 in 10.0 mi Calm Calm - N/A   Clear
1:35 AM 36.5 °F - 36.5 °F 100% 30.20 in 10.0 mi Calm Calm - N/A   Clear
1:55 AM 35.8 °F 31.9 °F 35.8 °F 100% 30.21 in 10.0 mi South 4.6 mph - N/A   Clear
2:15 AM 34.0 °F - 34.0 °F 100% 30.22 in 10.0 mi Calm Calm - N/A   Clear
2:35 AM 33.1 °F 30.0 °F 33.1 °F 100% 30.22 in 10.0 mi South 3.5 mph - N/A   Clear
2:55 AM 33.1 °F - 33.1 °F 100% 30.23 in 10.0 mi Calm Calm - N/A   Clear
3:15 AM 32.9 °F - 32.9 °F 100% 30.23 in 10.0 mi Calm Calm - N/A   Scattered Clouds
3:35 AM 33.8 °F - 33.8 °F 100% 30.24 in 10.0 mi Calm Calm - N/A   Mostly Cloudy
3:55 AM 33.1 °F - 33.1 °F 100% 30.24 in 10.0 mi Calm Calm - N/A   Scattered Clouds
4:15 AM 32.0 °F - 32.0 °F 100% 30.24 in 10.0 mi Calm Calm - N/A   Clear
4:35 AM 31.8 °F - 31.8 °F 100% 30.25 in 10.0 mi Calm Calm - N/A   Clear
4:55 AM 31.6 °F - 31.6 °F 100% 30.25 in 10.0 mi Calm Calm - N/A   Clear
5:15 AM 30.6 °F - 30.6 °F 100% 30.26 in 10.0 mi Calm Calm - N/A   Clear
5:35 AM 30.2 °F - 30.2 °F 100% 30.27 in 10.0 mi Calm Calm - N/A   Clear
5:55 AM 29.7 °F - 29.7 °F 100% 30.29 in 10.0 mi Calm Calm - N/A   Clear
6:15 AM 29.1 °F - 29.1 °F 100% 30.29 in 10.0 mi Calm Calm - N/A   Clear
6:35 AM 28.9 °F - 28.9 °F 100% 30.30 in 10.0 mi Calm Calm - N/A   Clear
6:55 AM 28.4 °F - 28.4 °F 100% 30.31 in 10.0 mi Calm Calm - N/A   Clear
7:15 AM 29.1 °F - 29.1 °F 100% 30.32 in 10.0 mi Calm Calm - N/A   Clear
7:35 AM 28.6 °F - 28.6 °F 100% 30.33 in 10.0 mi Calm Calm - N/A   Clear
7:55 AM 29.8 °F - 29.8 °F 100% 30.35 in 10.0 mi Calm Calm - N/A   Clear
8:15 AM 33.4 °F 30.4 °F 33.4 °F 100% 30.36 in 10.0 mi SSE 3.5 mph - N/A   Clear
8:35 AM 37.9 °F - 37.9 °F 100% 30.37 in 10.0 mi Calm Calm - N/A   Clear
8:55 AM 41.9 °F - 41.0 °F 97% 30.37 in 10.0 mi Calm Calm - N/A   Clear
9:15 AM 45.0 °F - 42.1 °F 90% 30.38 in 10.0 mi Calm Calm - N/A   Clear
9:35 AM 48.0 °F - 39.7 °F 73% 30.39 in 10.0 mi Calm Calm - N/A   Clear
9:55 AM 50.4 °F - 37.9 °F 62% 30.40 in 10.0 mi NNW 9.2 mph - N/A   Clear
10:15 AM 52.0 °F - 36.5 °F 56% 30.40 in 10.0 mi NW 6.9 mph - N/A   Clear
10:55 AM 54.9 °F - 35.4 °F 48% 30.41 in 10.0 mi NW 8.1 mph - N/A   Clear
11:15 AM 55.4 °F - 32.7 °F 42% 30.41 in 10.0 mi WNW 8.1 mph - N/A   Clear
11:35 AM 56.1 °F - 33.3 °F 42% 30.41 in 10.0 mi WNW 8.1 mph 16.1 mph N/A   Clear
11:55 AM 56.3 °F - 32.5 °F 41% 30.41 in 10.0 mi NNW 8.1 mph - N/A   Clear
12:15 PM 56.8 °F - 32.0 °F 39% 30.41 in 10.0 mi NW 5.8 mph - N/A   Clear
12:35 PM 58.1 °F - 30.9 °F 36% 30.41 in 10.0 mi NNW 9.2 mph - N/A   Clear
12:55 PM 58.3 °F - 31.1 °F 36% 30.40 in 10.0 mi NNW 5.8 mph - N/A   Clear
1:15 PM 59.0 °F - 30.7 °F 34% 30.40 in 10.0 mi WNW 8.1 mph - N/A   Clear
1:35 PM 59.9 °F - 30.9 °F 33% 30.38 in 10.0 mi NNE 6.9 mph - N/A   Clear
1:55 PM 59.7 °F - 30.0 °F 32% 30.38 in 10.0 mi North 8.1 mph - N/A   Clear
2:15 PM 59.0 °F - 30.2 °F 34% 30.37 in 10.0 mi NW 5.8 mph - N/A   Clear
2:35 PM 60.1 °F - 30.2 °F 32% 30.36 in 10.0 mi West 9.2 mph - N/A   Clear
2:55 PM 59.7 °F - 30.2 °F 33% 30.36 in 10.0 mi North 4.6 mph - N/A   Clear
3:15 PM 60.6 °F - 30.0 °F 31% 30.36 in 10.0 mi NW 6.9 mph - N/A   Clear
3:35 PM 60.4 °F - 30.7 °F 33% 30.36 in 10.0 mi NNW 5.8 mph - N/A   Clear
3:55 PM 60.3 °F - 31.1 °F 33% 30.36 in 10.0 mi NNW 5.8 mph - N/A   Clear
4:15 PM 60.4 °F - 30.7 °F 33% 30.36 in 10.0 mi NNW 5.8 mph - N/A   Clear
4:35 PM 60.4 °F - 31.1 °F 33% 30.36 in 10.0 mi NNW 4.6 mph - N/A   Clear
4:55 PM 59.9 °F - 30.7 °F 33% 30.36 in 10.0 mi Calm Calm - N/A   Clear
5:15 PM 59.7 °F - 31.5 °F 34% 30.37 in 10.0 mi NW 4.6 mph - N/A   Clear
5:35 PM 58.6 °F - 31.6 °F 36% 30.37 in 10.0 mi Calm Calm - N/A   Clear
5:55 PM 58.1 °F - 31.3 °F 36% 30.37 in 10.0 mi Calm Calm - N/A   Clear
6:15 PM 54.1 °F - 34.9 °F 48% 30.37 in 10.0 mi Calm Calm - N/A   Clear
6:35 PM 48.0 °F - 37.0 °F 66% 30.38 in 10.0 mi Calm Calm - N/A   Clear
6:55 PM 43.3 °F - 36.0 °F 75% 30.38 in 10.0 mi Calm Calm - N/A   Clear
7:15 PM 41.2 °F - 34.9 °F 78% 30.39 in 10.0 mi Calm Calm - N/A   Clear
7:35 PM 40.6 °F - 35.4 °F 82% 30.39 in 10.0 mi Calm Calm - N/A   Clear
7:55 PM 38.7 °F - 34.9 °F 86% 30.39 in 10.0 mi Calm Calm - N/A   Clear
8:15 PM 37.0 °F - 34.7 °F 91% 30.39 in 10.0 mi Calm Calm - N/A   Clear
8:35 PM 35.6 °F - 34.5 °F 96% 30.39 in 10.0 mi Calm Calm - N/A   Clear
8:55 PM 34.2 °F - 33.6 °F 98% 30.39 in 10.0 mi Calm Calm - N/A   Clear
9:15 PM 34.0 °F - 33.8 °F 99% 30.39 in 10.0 mi Calm Calm - N/A   Clear
9:35 PM 33.3 °F - 33.3 °F 100% 30.39 in 10.0 mi Calm Calm - N/A   Clear
9:55 PM 32.0 °F - 32.0 °F 100% 30.40 in 10.0 mi Calm Calm - N/A   Clear
10:15 PM 32.0 °F - 32.0 °F 100% 30.41 in 10.0 mi Calm Calm - N/A   Clear
10:35 PM 31.5 °F - 31.5 °F 100% 30.40 in 10.0 mi Calm Calm - N/A   Clear
10:55 PM 32.0 °F - 32.0 °F 100% 30.41 in 10.0 mi Calm Calm - N/A   Clear
11:15 PM 30.4 °F - 30.4 °F 100% 30.41 in 10.0 mi Calm Calm - N/A   Clear
11:35 PM 29.7 °F - 29.7 °F 100% 30.41 in 10.0 mi Calm Calm - N/A   Clear
11:55 PM 29.7 °F - 29.7 °F 100% 30.41 in 10.0 mi Calm Calm - N/A   Scattered Clouds